Location: Ebenezer
(18.2167°N, 63.0667°W)
Time: 00:23:17
(UTC+00:00)

Cosmos 1452 Rocket - Pass Details

Date: 26 January 2020
Orbit: 768 x 774 km, 74.1° (Epoch: 20 February)

Event Time Altitude Azimuth Distance (km) Brightness Sun altitude
Rises 23:26:59 0° 178° (S) 3,236 6.9 -19.9°
Reaches altitude 10° 23:29:27 10° 172° (S) 2,310 6.0 -20.5°
Enters shadow 23:34:14 44° 107° (ESE) 1,065 3.8 -21.6°
